Location: Unspecified
(50.1700°N, 6.8600°E)
Time: 01:13:23
(UTC+00:00)

Tiangong 2 - Pass Details

Date: 24 January 2019
Orbit: 380 x 390 km, 42.8° (Epoch: 21 February)

Event Time Altitude Azimuth Distance (km) Brightness Sun altitude
Exits shadow 05:44:51 14° 222° (SW) 1,214 3.3 -14.6°
Maximum altitude 05:46:04 16° 195° (SSW) 1,099 3.3 -14.4°
Drops below altitude 10° 05:48:08 10° 154° (SSE) 1,411 4.5 -14.1°
Sets 05:50:44 0° 132° (SE) 2,266 6.1 -13.7°
